Location: Bu�n Treun
(12.1333°N, 108.3167°E)
Time: 23:40:30
(UTC+00:00)

Cosmos 2208 Rocket - Pass Details

Date: 13 July 2020
Orbit: 754 x 806 km, 74.0° (Epoch: 14 August)

Event Time Altitude Azimuth Distance (km) Brightness Sun altitude
Rises 21:12:36 0° 350° (N) 3,265 7.5 -17.9°
Reaches altitude 10° 21:15:00 10° 352° (N) 2,329 6.7 -17.3°
Maximum altitude 21:20:17 74° 77° (ENE) 802 4.2 -16.2°
Drops below altitude 10° 21:25:29 10° 162° (SSE) 2,295 6.4 -15.1°
Sets 21:27:50 0° 164° (SSE) 3,214 7.1 -14.5°
